Regional Weather Roundup
Issued by NWS

Home | Current Version | Previous Version | Text Only | Print | Product List | Glossary On
Versions: 1 2 3 4 5 6 7 8 9 10 11 12 13 14 15 16 17 18 19 20 21 22 23 24 25 26 27 28 29 30 31 32 33 34 35 36 37 38 39 40 41 42 43 44 45 46 47 48 49 50
423
ASUS44 KBMX 041410
RWRAL

ALABAMA REGIONAL WEATHER ROUNDUP
NATIONAL WEATHER SERVICE BIRMINGHAM AL
900 AM CDT WED MAY 04 2016

NOTE: "FAIR" INDICATES FEW OR NO CLOUDS BELOW 12,000 FEET
WITH NO SIGNIFICANT WEATHER AND/OR OBSTRUCTIONS TO VISIBILITY.

THE REMARK "TC" DENOTES TEMPERATURE IN DEGREES CELSIUS.

ALZ001>011-014-016>018-020-041500-
NORTH ALABAMA

CITY           SKY/WX    TMP DP  RH WIND       PRES   REMARKS
MUSCLE SHOALS  SUNNY     62  48  60 W10       29.89S
HUNTSVILLE     SUNNY     62  51  67 NW6       29.87F
DECATUR        SUNNY     59  52  77 W7        29.88F
HALEYVILLE     FAIR      60  49  66 VRB5      29.91F
GADSDEN        SUNNY     62  51  67 VRB6      29.87F
$$

ALZ012-013-022-023-030>036-040>044-041500-
WEST CENTRAL ALABAMA

CITY           SKY/WX    TMP DP  RH WIND       PRES   REMARKS
TUSCALOOSA     SUNNY     62  51  67 NW9       29.91F
$$

ALZ015-024>027-033>036-040>044-041500-
CENTRAL ALABAMA

CITY           SKY/WX    TMP DP  RH WIND       PRES   REMARKS
BIRMINGHAM     MOSUNNY   60  51  72 NW8       29.90F
MONTGOMERY     SUNNY     65  51  60 NW9       29.88S
SHELBY CO ARPT SUNNY     60  51  72 NW8       29.89S
MAXWELL AFB    SUNNY     64  51  62 N8        29.87S
GREENVILLE     FAIR      63  51  65 NW8       29.89R
$$

ALZ019-021-028-029-037-038-045>048-041500-
EAST CENTRAL ALABAMA

CITY           SKY/WX    TMP DP  RH WIND       PRES   REMARKS
ANNISTON       SUNNY     62  47  57 NW8       29.86F
ALEXANDER CITY SUNNY     60  53  76 N13G20    29.86S
AUBURN         SUNNY     61  48  62 N16       29.86S
$$

ALZ051>064-041500-
SOUTHWEST ALABAMA

CITY           SKY/WX    TMP DP  RH WIND       PRES   REMARKS
MOBILE         MOSUNNY   64  53  67 N13       29.93R
BROOKLEY FIELD SUNNY     65  53  65 N14G20    29.92R
EVERGREEN      SUNNY     64  52  64 N10G17    29.91R
$$

ALZ049-050-065>069-041500-
SOUTHEAST ALABAMA

CITY           SKY/WX    TMP DP  RH WIND       PRES   REMARKS
DOTHAN         SUNNY     67  49  52 N10       29.89R
OZARK          SUNNY     67  50  53 N8        29.86R
TROY           SUNNY     64  52  64 NW9       29.89R
EUFAULA        FAIR      67  52  58 CALM      29.84S
$$




USA.gov is the U.S. government's official web portal to all federal, state and local government web resources and services.